When you browse on this site, cookies collect data to enhance your experience and personalize the content and advertising you see.
Visit our Privacy Policy to learn more. By continuing to use the site, you agree to this use of cookies and data.
  • En España
  • Lista de países
  • Para 7 días
  • Temperatura del agua
  • Mapa Satelital
  • El tiempo en el mapa
  • Informadores
  • user-avatar
    Iniciar sesión

    Tiempo cada hora Birmingem

    Hoy, 18 Junio, Martes

    Tiempo Temperatura Precipitaciones Viento Presión Humedad
    00:00 +24°C° 0.2 mm 1 mps 741 mmHg 86%
    01:00 +24°C° 0 mm 1 mps 741 mmHg 88%
    02:00 +24°C° 0 mm 1 mps 741 mmHg 89%
    03:00 +24°C° 0 mm 1 mps 741 mmHg 91%
    04:00 +24°C° 0.4 mm 1 mps 741 mmHg 91%
    05:00 +22°C° 0.4 mm 0 mps 741 mmHg 91%
    06:00 +22°C° 0.4 mm 0 mps 742 mmHg 91%
    07:00 +25°C° 1.2 mm 1 mps 742 mmHg 89%
    08:00 +26°C° 1.2 mm 1 mps 742 mmHg 87%
    09:00 +27°C° 1.2 mm 1 mps 742 mmHg 84%
    10:00 +27°C° 1.2 mm 1 mps 742 mmHg 85%
    11:00 +26°C° 1.2 mm 2 mps 741 mmHg 85%
    12:00 +26°C° 1.2 mm 2 mps 741 mmHg 86%
    13:00 +27°C° 0.8 mm 2 mps 741 mmHg 81%
    14:00 +28°C° 0.8 mm 3 mps 740 mmHg 77%
    15:00 +29°C° 0.8 mm 3 mps 740 mmHg 73%
    16:00 +28°C° 1.5 mm 3 mps 740 mmHg 77%
    17:00 +27°C° 1.5 mm 3 mps 739 mmHg 81%
    18:00 +26°C° 1.5 mm 3 mps 739 mmHg 86%
    19:00 +26°C° 0 mm 2 mps 739 mmHg 87%
    20:00 +25°C° 0 mm 2 mps 739 mmHg 89%
    21:00 +24°C° 0 mm 2 mps 740 mmHg 91%
    22:00 +24°C° 0 mm 2 mps 739 mmHg 92%
    23:00 +24°C° 0 mm 2 mps 739 mmHg 93%

    Mañana, 19 Junio, Miércoles

    Tiempo Temperatura Precipitaciones Viento Presión Humedad
    00:00 +23°C° 0 mm 2 mps 739 mmHg 94%
    01:00 +23°C° 0 mm 2 mps 739 mmHg 95%
    02:00 +23°C° 0 mm 1 mps 739 mmHg 95%
    03:00 +23°C° 0 mm 1 mps 739 mmHg 96%
    04:00 +23°C° 0 mm 1 mps 739 mmHg 95%
    05:00 +24°C° 0 mm 1 mps 739 mmHg 95%
    06:00 +24°C° 0 mm 1 mps 739 mmHg 94%
    07:00 +26°C° 0.1 mm 2 mps 739 mmHg 84%
    08:00 +28°C° 0.1 mm 2 mps 739 mmHg 73%
    09:00 +30°C° 0.1 mm 3 mps 739 mmHg 63%
    10:00 +31°C° 0 mm 3 mps 739 mmHg 58%
    11:00 +33°C° 0 mm 3 mps 739 mmHg 54%
    12:00 +34°C° 0 mm 3 mps 739 mmHg 49%
    13:00 +34°C° 0 mm 3 mps 739 mmHg 50%
    14:00 +34°C° 0 mm 3 mps 738 mmHg 51%
    15:00 +35°C° 0 mm 2 mps 738 mmHg 52%
    16:00 +34°C° 0 mm 2 mps 738 mmHg 56%
    17:00 +32°C° 0 mm 2 mps 737 mmHg 60%
    18:00 +31°C° 0 mm 2 mps 737 mmHg 64%
    19:00 +30°C° 0 mm 2 mps 737 mmHg 67%
    20:00 +29°C° 0 mm 3 mps 737 mmHg 69%
    21:00 +28°C° 0 mm 3 mps 738 mmHg 72%
    22:00 +28°C° 0 mm 3 mps 737 mmHg 72%
    23:00 +27°C° 0 mm 3 mps 737 mmHg 72%

    Pasado mañana, 20 Junio, Jueves

    Tiempo Temperatura Precipitaciones Viento Presión Humedad
    00:00 +27°C° 0 mm 4 mps 737 mmHg 72%
    01:00 +27°C° 0 mm 4 mps 737 mmHg 76%
    02:00 +26°C° 0 mm 4 mps 737 mmHg 79%
    03:00 +26°C° 0 mm 4 mps 737 mmHg 83%
    04:00 +26°C° 0 mm 4 mps 737 mmHg 82%
    05:00 +26°C° 0 mm 4 mps 737 mmHg 82%
    06:00 +26°C° 0 mm 4 mps 737 mmHg 81%
    07:00 +28°C° 0 mm 5 mps 738 mmHg 74%
    08:00 +29°C° 0 mm 5 mps 738 mmHg 67%
    09:00 +32°C° 0 mm 6 mps 739 mmHg 60%
    10:00 +33°C° 0 mm 5 mps 739 mmHg 57%
    11:00 +34°C° 0 mm 5 mps 738 mmHg 55%
    12:00 +35°C° 0 mm 5 mps 738 mmHg 52%
    13:00 +35°C° 0.2 mm 5 mps 738 mmHg 50%
    14:00 +35°C° 0.2 mm 5 mps 738 mmHg 47%
    15:00 +35°C° 0.2 mm 5 mps 737 mmHg 45%
    16:00 +34°C° 0.1 mm 4 mps 738 mmHg 52%
    17:00 +33°C° 0.1 mm 3 mps 738 mmHg 58%
    18:00 +31°C° 0.1 mm 3 mps 738 mmHg 64%
    19:00 +29°C° 0.2 mm 3 mps 739 mmHg 70%
    20:00 +28°C° 0.2 mm 3 mps 739 mmHg 76%
    21:00 +27°C° 0.2 mm 2 mps 740 mmHg 82%
    22:00 +26°C° 0 mm 2 mps 740 mmHg 84%
    23:00 +26°C° 0 mm 2 mps 740 mmHg 85%

    21 Junio, Viernes

    Tiempo Temperatura Precipitaciones Viento Presión Humedad
    00:00 +25°C° 0 mm 1 mps 740 mmHg 87%
    01:00 +25°C° 0 mm 1 mps 740 mmHg 88%
    02:00 +25°C° 0 mm 1 mps 740 mmHg 90%
    03:00 +22°C° 0 mm 0 mps 740 mmHg 91%
    04:00 +23°C° 0 mm 0 mps 741 mmHg 90%
    05:00 +23°C° 0 mm 0 mps 741 mmHg 89%
    06:00 +24°C° 0 mm 0 mps 742 mmHg 88%
    07:00 +26°C° 0 mm 0 mps 742 mmHg 79%
    08:00 +28°C° 0 mm 0 mps 743 mmHg 70%
    09:00 +31°C° 0 mm 0 mps 743 mmHg 62%
    10:00 +34°C° 0 mm 1 mps 743 mmHg 56%
    11:00 +35°C° 0 mm 1 mps 743 mmHg 50%
    12:00 +36°C° 0 mm 1 mps 743 mmHg 44%
    13:00 +37°C° 0 mm 1 mps 743 mmHg 42%
    14:00 +37°C° 0 mm 1 mps 742 mmHg 39%
    15:00 +39°C° 0 mm 2 mps 742 mmHg 37%
    16:00 +36°C° 0 mm 1 mps 742 mmHg 45%
    17:00 +35°C° 0 mm 1 mps 742 mmHg 52%
    18:00 +33°C° 0 mm 1 mps 742 mmHg 60%
    19:00 +32°C° 0 mm 1 mps 743 mmHg 64%
    20:00 +30°C° 0 mm 1 mps 743 mmHg 69%
    21:00 +29°C° 0 mm 1 mps 743 mmHg 73%
    22:00 +28°C° 0 mm 1 mps 743 mmHg 74%
    23:00 +28°C° 0 mm 1 mps 743 mmHg 75%

    22 Junio, Sábado

    Tiempo Temperatura Precipitaciones Viento Presión Humedad
    00:00 +27°C° 0 mm 1 mps 743 mmHg 77%
    01:00 +27°C° 0 mm 1 mps 743 mmHg 79%
    02:00 +26°C° 0 mm 1 mps 743 mmHg 81%
    03:00 +26°C° 0 mm 1 mps 743 mmHg 84%
    04:00 +26°C° 0 mm 1 mps 744 mmHg 84%
    05:00 +26°C° 0 mm 1 mps 744 mmHg 84%
    06:00 +27°C° 0 mm 1 mps 744 mmHg 83%
    07:00 +29°C° 0 mm 1 mps 745 mmHg 76%
    08:00 +31°C° 0 mm 2 mps 745 mmHg 68%
    09:00 +34°C° 0 mm 2 mps 745 mmHg 60%
    10:00 +35°C° 0.4 mm 2 mps 745 mmHg 55%
    11:00 +36°C° 0.4 mm 2 mps 745 mmHg 50%
    12:00 +38°C° 0.4 mm 2 mps 745 mmHg 45%
    13:00 +38°C° 0 mm 2 mps 745 mmHg 44%
    14:00 +38°C° 0 mm 2 mps 744 mmHg 44%
    15:00 +36°C° 0 mm 1 mps 744 mmHg 44%
    16:00 +35°C° 0.4 mm 2 mps 743 mmHg 51%
    17:00 +34°C° 0.4 mm 2 mps 743 mmHg 59%
    18:00 +31°C° 0.4 mm 2 mps 743 mmHg 66%
    19:00 +29°C° 0.3 mm 2 mps 743 mmHg 70%
    20:00 +27°C° 0.3 mm 2 mps 743 mmHg 74%
    21:00 +26°C° 0.3 mm 2 mps 744 mmHg 78%
    22:00 +25°C° 0 mm 2 mps 744 mmHg 80%
    23:00 +25°C° 0 mm 2 mps 744 mmHg 82%

    23 Junio, Domingo

    Tiempo Temperatura Precipitaciones Viento Presión Humedad
    00:00 +25°C° 0 mm 2 mps 743 mmHg 84%
    01:00 +24°C° 0 mm 2 mps 743 mmHg 85%
    02:00 +24°C° 0 mm 1 mps 743 mmHg 86%
    03:00 +23°C° 0 mm 1 mps 743 mmHg 87%
    04:00 +24°C° 0 mm 1 mps 744 mmHg 86%
    05:00 +24°C° 0 mm 1 mps 744 mmHg 86%
    06:00 +25°C° 0 mm 1 mps 744 mmHg 85%
    07:00 +28°C° 0.1 mm 1 mps 744 mmHg 75%
    08:00 +30°C° 0.1 mm 1 mps 745 mmHg 66%
    09:00 +34°C° 0.1 mm 2 mps 745 mmHg 56%
    10:00 +35°C° 0.1 mm 2 mps 745 mmHg 51%
    11:00 +36°C° 0.1 mm 2 mps 745 mmHg 46%
    12:00 +38°C° 0.1 mm 3 mps 744 mmHg 40%
    13:00 +38°C° 0 mm 2 mps 744 mmHg 40%
    14:00 +38°C° 0 mm 2 mps 743 mmHg 40%
    15:00 +38°C° 0 mm 2 mps 743 mmHg 39%
    16:00 +37°C° 0 mm 2 mps 743 mmHg 44%
    17:00 +35°C° 0 mm 1 mps 743 mmHg 50%
    18:00 +33°C° 0 mm 1 mps 743 mmHg 55%
    19:00 +32°C° 0.1 mm 2 mps 743 mmHg 61%
    20:00 +30°C° 0.1 mm 2 mps 743 mmHg 66%
    21:00 +28°C° 0.1 mm 3 mps 743 mmHg 72%
    22:00 +27°C° 0 mm 2 mps 743 mmHg 74%
    23:00 +26°C° 0 mm 2 mps 743 mmHg 76%
    Mostrar más